View from above orbital plane
|
View from above satellite
|
Ground track
|
The orbit data is extracted from the following two-line orbital elements,
1 39061U 13002A 20230.96518740 0.00000000 00000-0 00000-0 0 05
2 39061 97.4577 349.0399 0002001 351.5246 8.4753 15.17638738 02
Epoch (UTC): | 17 August 2020 23:09:52 |
Eccentricity: | 0.0002001 |
inclination: | 97.4577° |
perigee height: | 511 km |
apogee height: | 514 km |
right ascension of ascending node: | 349.0399° |
argument of perigee: | 351.5246° |
revolutions per day: | 15.17638738 |
mean anomaly at epoch: | 8.4753° |
orbit number at epoch: | 0 |
The dashed part of the orbit path shows where the satellite is in the earth's shadow,
|
|